Location: Bijele Vode
(45.2833°N, 16.2000°E)
Time: 10:36:22
(UTC+00:00)

N. Korean satellite - Visible Passes

Search period start: 20 September 2021 00:00
Search period end: 30 September 2021 00:00
Orbit: 448 x 498 km, 97.3° (Epoch: 19 September)

Date Brightness Start Highest point End Pass type
(mag) Time Alt. Az. Time Alt. Az. Time Alt. Az.
21 Sep 8.2 03:50:27 10° NNE 03:53:45 37° E 03:57:04 10° SSE visible
22 Sep 9.6 03:23:23 10° NE 03:25:51 18° E 03:28:20 10° SE visible
24 Sep 7.6 04:00:16 10° NNE 04:03:44 50° E 04:07:13 10° S visible
25 Sep 9.2 03:32:57 10° NE 03:35:51 23° E 03:38:46 10° SSE visible
26 Sep 10.1 03:06:42 10° ENE 03:07:52 11° E 03:09:02 10° ESE visible
27 Sep 6.9 04:10:04 10° NNE 04:13:38 69° ESE 04:17:13 10° S visible
28 Sep 8.7 03:42:34 10° NNE 03:45:47 30° E 03:49:00 10° SSE visible
29 Sep 9.8 03:15:41 10° NE 03:17:49 15° E 03:19:57 10° SE visible
